Weather History for Tacoma Narrows, WA

Change the Weather History Date:

Friday, August 2, 2013

  Actual Average Record
Temperature  
Mean Temperature 60 °F -  
Max Temperature 62 °F 74 °F 82 °F (2007)
Min Temperature 57 °F 55 °F 51 °F (2010)
Degree Days  
Heating Degree Days 6    
Growing Degree Days 10 (Base 50)    
Moisture  
Dew Point 55 °F    
Average Humidity 86    
Maximum Humidity 94    
Minimum Humidity 75    
Precipitation  
Precipitation 0.09 in - - ()
Sea Level Pressure  
Sea Level Pressure 30.12 in    
Wind  
Wind Speed 6 mph (SSW)    
Max Wind Speed 10 mph    
Max Gust Speed -    
Visibility 8 miles    
Events Rain    
Averages and records for this station are not official NWS values.
T = Trace of Precipitation, MM = Missing Value Source: NWS Daily Summary

Daily Weather History Graph

Daily Weather History Graph

Search for Another Location

Airport:

Trip Planner

Search our weather history database for the weather conditions in past years. The results will help you decide how hot, cold, wet, or windy it might be!

Date:

Astronomy

Aug. 02, 2013 Rise Set
Actual Time 5:50 AM PDT 8:41 PM PDT
Civil Twilight 5:15 AM PDT 9:17 PM PDT
Nautical Twilight 4:29 AM PDT 10:02 PM PDT
Astronomical Twilight 3:35 AM PDT 10:55 PM PDT
Moon 2:12 AM PDT (8/2) 5:46 PM PDT (8/2)
Length of Visible Light 16h 02m
Length of Day
14h 51m
Waning Crescent, 15% of the Moon is Illuminated
Aug 2
Waning Crescent
Aug 6
New
Aug 14
First Quarter
Aug 20
Full
Aug 28
Last Quarter

Hourly Weather History & Observations

Time (PDT) Temp. Dew Point Humidity Pressure Visibility Wind Dir Wind Speed Gust Speed Precip Events Conditions
12:46 AM 59.0 °F 53.6 °F 82% 30.09 in 10.0 mi SSW 9.2 mph - N/A   Mostly Cloudy
12:53 AM 59.0 °F 52.0 °F 78% 30.09 in 10.0 mi SW 8.1 mph - N/A   Mostly Cloudy
1:10 AM 59.0 °F 53.6 °F 82% 30.09 in 10.0 mi SW 6.9 mph - N/A   Scattered Clouds
1:53 AM 57.0 °F 52.0 °F 83% 30.09 in 10.0 mi South 5.8 mph - N/A   Scattered Clouds
2:25 AM 57.2 °F 51.8 °F 82% 30.09 in 10.0 mi South 8.1 mph - N/A   Mostly Cloudy
2:53 AM 57.9 °F 52.0 °F 81% 30.08 in 10.0 mi SSW 10.4 mph - N/A   Overcast
3:22 AM 57.2 °F 53.6 °F 88% 30.08 in 10.0 mi South 8.1 mph - N/A   Scattered Clouds
3:53 AM 57.0 °F 53.1 °F 87% 30.08 in 10.0 mi South 8.1 mph - N/A   Mostly Cloudy
4:53 AM 57.9 °F 52.0 °F 81% 30.08 in 10.0 mi South 6.9 mph - N/A   Overcast
5:53 AM 57.9 °F 52.0 °F 81% 30.09 in 10.0 mi South 8.1 mph - N/A   Overcast
6:33 AM 57.2 °F 53.6 °F 88% 30.10 in 9.0 mi SW 4.6 mph - N/A   Overcast
6:53 AM 57.0 °F 53.1 °F 87% 30.11 in 9.0 mi SSW 3.5 mph - N/A   Overcast
7:06 AM 57.2 °F 53.6 °F 88% 30.11 in 10.0 mi South 5.8 mph - N/A   Overcast
7:53 AM 59.0 °F 52.0 °F 78% 30.12 in 10.0 mi South 6.9 mph - N/A   Overcast
8:53 AM 60.1 °F 52.0 °F 75% 30.12 in 10.0 mi SSW 6.9 mph - N/A   Overcast
9:29 AM 57.2 °F 53.6 °F 88% 30.12 in 2.5 mi SW 4.6 mph - N/A   Overcast
9:38 AM 57.2 °F 55.4 °F 94% 30.12 in 3.0 mi SW 5.8 mph - N/A   Overcast
9:50 AM 57.2 °F 55.4 °F 94% 30.12 in 4.0 mi SW 4.6 mph - N/A   Overcast
9:53 AM 57.9 °F 55.0 °F 90% 30.12 in 5.0 mi SW 4.6 mph - N/A   Overcast
10:34 AM 57.2 °F 55.4 °F 94% 30.12 in 2.5 mi SW 5.8 mph - N/A   Overcast
10:38 AM 57.2 °F 55.4 °F 94% 30.12 in 2.5 mi WSW 5.8 mph - N/A   Overcast
10:53 AM 59.0 °F 55.0 °F 87% 30.12 in 3.0 mi SW 5.8 mph - N/A   Overcast
11:53 AM 62.1 °F 54.0 °F 75% 30.13 in 5.0 mi SW 3.5 mph - N/A   Haze
12:53 PM 60.1 °F 55.0 °F 83% 30.13 in 9.0 mi WSW 4.6 mph - N/A   Overcast
1:53 PM 61.0 °F 55.0 °F 81% 30.13 in 10.0 mi South 4.6 mph - N/A   Overcast
2:26 PM 60.8 °F 55.4 °F 82% 30.14 in 3.0 mi SW 4.6 mph - 0.00 in   Overcast
2:53 PM 60.1 °F 57.0 °F 90% 30.14 in 3.0 mi SSW 3.5 mph - 0.03 in Rain Light Rain
3:53 PM 60.1 °F 57.0 °F 90% 30.14 in 5.0 mi Calm Calm - 0.04 in Rain Light Rain
4:00 PM 60.8 °F 57.2 °F 88% 30.14 in 10.0 mi Calm Calm - 0.00 in Rain Light Rain
4:17 PM 60.8 °F 57.2 °F 88% 30.14 in 10.0 mi Calm Calm - 0.00 in Rain Light Rain
4:53 PM 60.1 °F 55.9 °F 86% 30.14 in 10.0 mi Calm Calm - 0.01 in Rain Light Rain
5:53 PM 60.1 °F 57.0 °F 90% 30.13 in 5.0 mi Calm Calm - 0.01 in Rain Light Rain
6:53 PM 60.1 °F 57.0 °F 90% 30.13 in 10.0 mi Calm Calm - 0.00 in   Overcast
7:53 PM 60.1 °F 57.0 °F 90% 30.13 in 10.0 mi Calm Calm - N/A   Overcast
8:53 PM 60.1 °F 57.0 °F 90% 30.14 in 10.0 mi Calm Calm - N/A   Overcast
9:53 PM 61.0 °F 57.0 °F 87% 30.14 in 10.0 mi Calm Calm - N/A   Overcast
10:50 PM 60.8 °F 57.2 °F 88% 30.14 in 10.0 mi Calm Calm - N/A   Overcast
10:53 PM 60.1 °F 57.0 °F 90% 30.14 in 10.0 mi Calm Calm - N/A   Overcast
11:53 PM 60.1 °F 57.0 °F 90% 30.14 in 10.0 mi Calm Calm - N/A   Overcast